Time,TemperatureF,DewpointF,PressureIn,WindDirection,WindDirectionDegrees,WindSpeedMPH,WindSpeedGustMPH,Humidity,HourlyPrecipIn,Conditions,Clouds,dailyrainin,SoftwareType,DateUTC
2013-05-26 00:01:00,49.8,42.5,30.20,NNW,330,0.0,0.0,76,0.00,,CLR,0.00,VWS V13.01,2013-05-26 04:01:00,
2013-05-26 00:02:00,49.8,42.5,30.20,NNW,330,0.0,1.0,76,0.00,,CLR,0.00,VWS V13.01,2013-05-26 04:02:00,
2013-05-26 00:07:00,49.6,42.7,30.20,NNE,32,0.0,2.0,77,0.00,,CLR,0.00,VWS V13.01,2013-05-26 04:07:00,
2013-05-26 00:12:00,49.4,42.5,30.20,NNE,32,0.0,2.0,77,0.00,,CLR,0.00,VWS V13.01,2013-05-26 04:12:00,
2013-05-26 00:17:00,49.1,42.5,30.20,NNE,32,0.0,2.0,78,0.00,,CLR,0.00,VWS V13.01,2013-05-26 04:17:00,
2013-05-26 00:22:00,48.8,42.3,30.20,NNE,32,2.0,2.0,78,0.00,,CLR,0.00,VWS V13.01,2013-05-26 04:22:00,
2013-05-26 00:27:00,48.6,42.1,30.20,NNE,31,0.0,2.0,78,0.00,,CLR,0.00,VWS V13.01,2013-05-26 04:27:00,
2013-05-26 00:32:00,48.3,42.1,30.20,NNE,31,2.0,2.0,79,0.00,,CLR,0.00,VWS V13.01,2013-05-26 04:32:00,
2013-05-26 00:37:00,48.1,41.9,30.20,NNE,31,0.0,2.0,79,0.00,,CLR,0.00,VWS V13.01,2013-05-26 04:37:00,
2013-05-26 00:42:00,47.8,41.6,30.20,NNE,31,0.0,2.0,79,0.00,,CLR,0.00,VWS V13.01,2013-05-26 04:42:00,
2013-05-26 00:47:00,47.5,41.7,30.20,NNE,31,0.0,2.0,80,0.00,,CLR,0.00,VWS V13.01,2013-05-26 04:47:00,
2013-05-26 00:52:00,47.1,41.6,30.20,NNE,31,0.0,2.0,81,0.00,,CLR,0.00,VWS V13.01,2013-05-26 04:52:00,
2013-05-26 00:57:00,46.7,41.5,30.20,NNE,31,0.0,2.0,82,0.00,,CLR,0.00,VWS V13.01,2013-05-26 04:57:00,
2013-05-26 01:02:00,46.3,41.1,30.20,NNE,31,0.0,0.0,82,0.00,,CLR,0.00,VWS V13.01,2013-05-26 05:02:00,
2013-05-26 01:07:00,45.9,41.0,30.20,NNE,31,0.0,0.0,83,0.00,,CLR,0.00,VWS V13.01,2013-05-26 05:07:00,
2013-05-26 01:12:00,45.5,41.0,30.20,NNE,31,0.0,0.0,84,0.00,,CLR,0.00,VWS V13.01,2013-05-26 05:12:00,
2013-05-26 01:17:00,45.0,40.8,30.20,NNE,31,0.0,0.0,85,0.00,,CLR,0.00,VWS V13.01,2013-05-26 05:17:00,
2013-05-26 01:22:00,44.6,40.7,30.20,NNE,31,0.0,0.0,86,0.00,,CLR,0.00,VWS V13.01,2013-05-26 05:22:00,
2013-05-26 01:27:00,44.3,40.4,30.20,NNE,31,0.0,0.0,86,0.00,,CLR,0.00,VWS V13.01,2013-05-26 05:27:00,
2013-05-26 01:32:00,43.9,40.3,30.20,NNE,31,0.0,0.0,87,0.00,,CLR,0.00,VWS V13.01,2013-05-26 05:32:00,
2013-05-26 01:37:00,43.6,40.3,30.20,NNE,31,0.0,0.0,88,0.00,,CLR,0.00,VWS V13.01,2013-05-26 05:37:00,
2013-05-26 01:42:00,43.3,40.0,30.21,NNE,31,0.0,0.0,88,0.00,,CLR,0.00,VWS V13.01,2013-05-26 05:42:00,
2013-05-26 01:47:00,43.0,39.7,30.21,NNE,31,0.0,0.0,88,0.00,,CLR,0.00,VWS V13.01,2013-05-26 05:47:00,
2013-05-26 01:52:00,42.8,39.8,30.21,NNE,31,0.0,0.0,89,0.00,,CLR,0.00,VWS V13.01,2013-05-26 05:52:00,
2013-05-26 01:57:00,42.5,39.5,30.21,NNE,31,0.0,0.0,89,0.00,,CLR,0.00,VWS V13.01,2013-05-26 05:57:00,
2013-05-26 02:02:00,42.3,39.6,30.21,NNE,31,0.0,0.0,90,0.00,,CLR,0.00,VWS V13.01,2013-05-26 06:02:00,
2013-05-26 02:07:00,42.1,39.4,30.21,NNE,31,0.0,0.0,90,0.00,,CLR,0.00,VWS V13.01,2013-05-26 06:07:00,
2013-05-26 02:12:00,42.0,39.3,30.20,NNE,31,0.0,0.0,90,0.00,,CLR,0.00,VWS V13.01,2013-05-26 06:12:00,
2013-05-26 02:17:00,41.8,39.1,30.20,NNE,31,0.0,0.0,90,0.00,,CLR,0.00,VWS V13.01,2013-05-26 06:17:00,
2013-05-26 02:22:00,41.7,39.3,30.20,NNE,31,0.0,0.0,91,0.00,,CLR,0.00,VWS V13.01,2013-05-26 06:22:00,
2013-05-26 02:27:00,41.6,39.2,30.20,NNE,31,0.0,0.0,91,0.00,,CLR,0.00,VWS V13.01,2013-05-26 06:27:00,
2013-05-26 02:32:00,41.5,39.1,30.20,NNE,31,0.0,0.0,91,0.00,,CLR,0.00,VWS V13.01,2013-05-26 06:32:00,
2013-05-26 02:37:00,41.4,39.0,30.20,NNE,31,0.0,0.0,91,0.00,,CLR,0.00,VWS V13.01,2013-05-26 06:37:00,
2013-05-26 02:42:00,41.3,38.9,30.20,NNE,31,0.0,0.0,91,0.00,,CLR,0.00,VWS V13.01,2013-05-26 06:42:00,
2013-05-26 02:47:00,41.3,38.9,30.20,NNE,31,0.0,0.0,91,0.00,,CLR,0.00,VWS V13.01,2013-05-26 06:47:00,
2013-05-26 02:53:00,41.3,39.2,30.20,NNE,31,0.0,0.0,92,0.00,,CLR,0.00,VWS V13.01,2013-05-26 06:53:00,
2013-05-26 02:58:00,41.3,39.2,30.20,NNE,31,0.0,0.0,92,0.00,,CLR,0.00,VWS V13.01,2013-05-26 06:58:00,
2013-05-26 03:03:00,41.4,39.2,30.20,NNE,31,0.0,0.0,92,0.00,,CLR,0.00,VWS V13.01,2013-05-26 07:03:00,
2013-05-26 03:08:00,41.5,39.3,30.20,NNE,31,0.0,1.0,92,0.00,,CLR,0.00,VWS V13.01,2013-05-26 07:08:00,
2013-05-26 03:13:00,41.8,39.7,30.20,NNE,31,0.0,1.0,92,0.00,,CLR,0.00,VWS V13.01,2013-05-26 07:13:00,
2013-05-26 03:18:00,41.9,39.8,30.19,NNE,31,0.0,1.0,92,0.00,,CLR,0.00,VWS V13.01,2013-05-26 07:18:00,
2013-05-26 03:23:00,42.1,40.0,30.19,NNE,31,0.0,1.0,92,0.00,,CLR,0.00,VWS V13.01,2013-05-26 07:23:00,
2013-05-26 03:28:00,42.2,40.0,30.19,NNE,31,0.0,1.0,92,0.00,,CLR,0.00,VWS V13.01,2013-05-26 07:28:00,
2013-05-26 03:33:00,42.3,39.9,30.19,NNE,31,0.0,0.0,91,0.00,,CLR,0.00,VWS V13.01,2013-05-26 07:33:00,
2013-05-26 03:38:00,42.4,40.0,30.19,NNE,31,0.0,1.0,91,0.00,,CLR,0.00,VWS V13.01,2013-05-26 07:38:00,
2013-05-26 03:43:00,42.4,40.0,30.19,NNE,31,0.0,1.0,91,0.00,,CLR,0.00,VWS V13.01,2013-05-26 07:43:00,
2013-05-26 03:48:00,42.3,39.9,30.19,NNE,31,0.0,1.0,91,0.00,,CLR,0.00,VWS V13.01,2013-05-26 07:48:00,
2013-05-26 03:53:00,42.1,39.7,30.19,NNE,31,0.0,1.0,91,0.00,,CLR,0.00,VWS V13.01,2013-05-26 07:53:00,
2013-05-26 03:58:00,41.8,39.1,30.19,NNE,31,0.0,1.0,90,0.00,,CLR,0.00,VWS V13.01,2013-05-26 07:58:00,
2013-05-26 04:03:00,41.6,39.2,30.20,NNE,31,0.0,0.0,91,0.00,,CLR,0.00,VWS V13.01,2013-05-26 08:03:00,
2013-05-26 04:08:00,41.4,39.0,30.19,NNE,31,0.0,0.0,91,0.00,,CLR,0.00,VWS V13.01,2013-05-26 08:08:00,
2013-05-26 04:13:00,41.3,38.9,30.20,NNE,31,0.0,0.0,91,0.00,,CLR,0.00,VWS V13.01,2013-05-26 08:13:00,
2013-05-26 04:18:00,41.1,38.7,30.20,NNE,31,0.0,0.0,91,0.00,,CLR,0.00,VWS V13.01,2013-05-26 08:18:00,
2013-05-26 04:23:00,41.0,38.6,30.20,NNE,31,0.0,0.0,91,0.00,,CLR,0.00,VWS V13.01,2013-05-26 08:23:00,
2013-05-26 04:28:00,40.9,38.5,30.20,NNE,31,0.0,0.0,91,0.00,,CLR,0.00,VWS V13.01,2013-05-26 08:28:00,
2013-05-26 04:33:00,40.8,38.4,30.20,NNE,31,0.0,0.0,91,0.00,,CLR,0.00,VWS V13.01,2013-05-26 08:33:00,
2013-05-26 04:38:00,40.7,38.3,30.20,NNE,31,0.0,0.0,91,0.00,,CLR,0.00,VWS V13.01,2013-05-26 08:38:00,
2013-05-26 04:43:00,40.6,38.2,30.20,NNE,31,0.0,0.0,91,0.00,,CLR,0.00,VWS V13.01,2013-05-26 08:43:00,
2013-05-26 04:48:00,40.6,38.5,30.21,NNE,31,0.0,0.0,92,0.00,,CLR,0.00,VWS V13.01,2013-05-26 08:48:00,
2013-05-26 04:53:00,40.5,38.4,30.21,NNE,31,0.0,0.0,92,0.00,,CLR,0.00,VWS V13.01,2013-05-26 08:53:00,
2013-05-26 04:58:00,40.2,38.1,30.21,NNE,31,0.0,1.0,92,0.00,,CLR,0.00,VWS V13.01,2013-05-26 08:58:00,
2013-05-26 05:03:00,39.9,37.8,30.21,NNE,31,0.0,0.0,92,0.00,,CLR,0.00,VWS V13.01,2013-05-26 09:03:00,
2013-05-26 05:08:00,39.6,37.5,30.21,NNE,31,0.0,1.0,92,0.00,,CLR,0.00,VWS V13.01,2013-05-26 09:08:00,
2013-05-26 05:13:00,39.5,37.4,30.22,NNE,31,0.0,1.0,92,0.00,,CLR,0.00,VWS V13.01,2013-05-26 09:13:00,
2013-05-26 05:18:00,39.3,37.2,30.22,NNE,31,0.0,1.0,92,0.00,,CLR,0.00,VWS V13.01,2013-05-26 09:18:00,
2013-05-26 05:24:00,39.2,37.1,30.22,NNE,31,0.0,1.0,92,0.00,,CLR,0.00,VWS V13.01,2013-05-26 09:24:00,
2013-05-26 05:29:00,39.0,36.9,30.22,NNE,31,0.0,1.0,92,0.00,,CLR,0.00,VWS V13.01,2013-05-26 09:29:00,
2013-05-26 05:34:00,38.9,36.8,30.22,NNE,31,0.0,0.0,92,0.00,,CLR,0.00,VWS V13.01,2013-05-26 09:34:00,
2013-05-26 05:39:00,38.8,36.7,30.22,NNE,31,0.0,0.0,92,0.00,,CLR,0.00,VWS V13.01,2013-05-26 09:39:00,
2013-05-26 05:44:00,38.7,36.6,30.23,SSE,148,0.0,0.0,92,0.00,,CLR,0.00,VWS V13.01,2013-05-26 09:44:00,
2013-05-26 05:49:00,38.6,36.5,30.23,SSE,148,0.0,0.0,92,0.00,,CLR,0.00,VWS V13.01,2013-05-26 09:49:00,
2013-05-26 05:54:00,38.5,36.7,30.23,SSE,148,0.0,1.0,93,0.00,,CLR,0.00,VWS V13.01,2013-05-26 09:54:00,
2013-05-26 05:59:00,38.3,36.5,30.23,SSE,148,0.0,1.0,93,0.00,,CLR,0.00,VWS V13.01,2013-05-26 09:59:00,
2013-05-26 06:04:00,38.3,36.5,30.23,SSE,148,0.0,0.0,93,0.00,,CLR,0.00,VWS V13.01,2013-05-26 10:04:00,
2013-05-26 06:09:00,38.2,36.4,30.23,SSE,148,0.0,0.0,93,0.00,,CLR,0.00,VWS V13.01,2013-05-26 10:09:00,
2013-05-26 06:14:00,38.2,36.4,30.23,SSE,148,0.0,0.0,93,0.00,,CLR,0.00,VWS V13.01,2013-05-26 10:14:00,
2013-05-26 06:19:00,38.3,36.5,30.23,SSE,148,0.0,0.0,93,0.00,,CLR,0.00,VWS V13.01,2013-05-26 10:19:00,
2013-05-26 06:24:00,38.3,36.5,30.23,SSE,148,0.0,0.0,93,0.00,,CLR,0.00,VWS V13.01,2013-05-26 10:24:00,
2013-05-26 06:29:00,38.4,36.6,30.23,SSE,148,0.0,1.0,93,0.00,,CLR,0.00,VWS V13.01,2013-05-26 10:29:00,
2013-05-26 06:34:00,38.5,36.7,30.23,SSE,148,0.0,0.0,93,0.00,,CLR,0.00,VWS V13.01,2013-05-26 10:34:00,
2013-05-26 06:39:00,38.7,36.8,30.23,SSE,148,0.0,0.0,93,0.00,,CLR,0.00,VWS V13.01,2013-05-26 10:39:00,
2013-05-26 06:44:00,38.9,37.3,30.23,SSE,148,0.0,0.0,94,0.00,,CLR,0.00,VWS V13.01,2013-05-26 10:44:00,
2013-05-26 06:49:00,39.3,37.7,30.23,SSE,148,0.0,0.0,94,0.00,,CLR,0.00,VWS V13.01,2013-05-26 10:49:00,
2013-05-26 06:54:00,39.6,38.0,30.24,SSE,148,0.0,0.0,94,0.00,,CLR,0.00,VWS V13.01,2013-05-26 10:54:00,
2013-05-26 06:59:00,40.0,38.4,30.24,SSE,148,0.0,1.0,94,0.00,,CLR,0.00,VWS V13.01,2013-05-26 10:59:00,
2013-05-26 07:04:00,40.4,38.8,30.24,SSE,148,0.0,0.0,94,0.00,,CLR,0.00,VWS V13.01,2013-05-26 11:04:00,
2013-05-26 07:09:00,40.8,39.2,30.24,SSE,148,0.0,1.0,94,0.00,,CLR,0.00,VWS V13.01,2013-05-26 11:09:00,
2013-05-26 07:14:00,41.2,39.6,30.24,SSE,148,0.0,1.0,94,0.00,,CLR,0.00,VWS V13.01,2013-05-26 11:14:00,
2013-05-26 07:19:00,41.7,40.1,30.24,SSE,148,0.0,1.0,94,0.00,,CLR,0.00,VWS V13.01,2013-05-26 11:19:00,
2013-05-26 07:24:00,42.3,40.7,30.24,SSE,148,0.0,1.0,94,0.00,,CLR,0.00,VWS V13.01,2013-05-26 11:24:00,
2013-05-26 07:29:00,42.9,41.6,30.24,SSE,148,0.0,1.0,95,0.00,,CLR,0.00,VWS V13.01,2013-05-26 11:29:00,
2013-05-26 07:34:00,43.5,41.9,30.24,SSE,152,1.0,1.0,94,0.00,,CLR,0.00,VWS V13.01,2013-05-26 11:34:00,
2013-05-26 07:39:00,44.2,42.6,30.24,SSE,152,0.0,1.0,94,0.00,,CLR,0.00,VWS V13.01,2013-05-26 11:39:00,
2013-05-26 07:44:00,45.2,43.3,30.24,SSE,152,0.0,1.0,93,0.00,,CLR,0.00,VWS V13.01,2013-05-26 11:44:00,
2013-05-26 07:49:00,46.5,44.6,30.24,NW,306,1.0,3.0,93,0.00,,CLR,0.00,VWS V13.01,2013-05-26 11:49:00,
2013-05-26 07:54:00,47.4,44.3,30.24,North,355,1.0,5.0,89,0.00,,CLR,0.00,VWS V13.01,2013-05-26 11:54:00,
2013-05-26 07:59:00,48.5,44.5,30.24,North,9,0.0,5.0,86,0.00,,CLR,0.00,VWS V13.01,2013-05-26 11:59:00,
2013-05-26 08:04:00,49.2,44.3,30.25,North,9,0.0,1.0,83,0.00,,CLR,0.00,VWS V13.01,2013-05-26 12:04:00,
2013-05-26 08:09:00,49.9,44.3,30.24,North,5,3.0,3.0,81,0.00,,CLR,0.00,VWS V13.01,2013-05-26 12:09:00,
2013-05-26 08:14:00,50.4,43.8,30.24,NW,314,0.0,3.0,78,0.00,,CLR,0.00,VWS V13.01,2013-05-26 12:14:00,
2013-05-26 08:19:00,50.4,43.1,30.24,NNE,13,4.0,4.0,76,0.00,,CLR,0.00,VWS V13.01,2013-05-26 12:19:00,
2013-05-26 08:25:00,50.3,43.0,30.25,North,350,0.0,4.0,76,0.00,,CLR,0.00,VWS V13.01,2013-05-26 12:25:00,
2013-05-26 08:29:00,50.4,43.5,30.25,NW,309,0.0,4.0,77,0.00,,CLR,0.00,VWS V13.01,2013-05-26 12:29:00,
2013-05-26 08:35:00,50.6,43.3,30.25,WNW,285,0.0,3.0,76,0.00,,CLR,0.00,VWS V13.01,2013-05-26 12:35:00,
2013-05-26 08:40:00,50.7,43.8,30.25,WNW,283,0.0,3.0,77,0.00,,CLR,0.00,VWS V13.01,2013-05-26 12:40:00,
2013-05-26 08:45:00,50.7,43.8,30.24,NNE,16,4.0,5.0,77,0.00,,CLR,0.00,VWS V13.01,2013-05-26 12:45:00,
2013-05-26 08:50:00,50.9,43.3,30.24,NNE,26,3.0,9.0,75,0.00,,CLR,0.00,VWS V13.01,2013-05-26 12:50:00,
2013-05-26 08:55:00,51.1,43.5,30.24,West,279,0.0,9.0,75,0.00,,CLR,0.00,VWS V13.01,2013-05-26 12:55:00,
2013-05-26 09:00:00,51.7,44.4,30.24,WNW,296,0.0,9.0,76,0.00,,CLR,0.00,VWS V13.01,2013-05-26 13:00:00,
2013-05-26 09:05:00,51.9,44.2,30.24,WNW,289,0.0,3.0,75,0.00,,CLR,0.00,VWS V13.01,2013-05-26 13:05:00,
2013-05-26 09:10:00,52.1,44.8,30.24,NNE,17,0.0,5.0,76,0.00,,CLR,0.00,VWS V13.01,2013-05-26 13:10:00,
2013-05-26 09:15:00,52.3,45.0,30.24,West,270,6.0,6.0,76,0.00,,CLR,0.00,VWS V13.01,2013-05-26 13:15:00,
2013-05-26 09:20:00,52.4,45.1,30.24,West,281,2.0,6.0,76,0.00,,CLR,0.00,VWS V13.01,2013-05-26 13:20:00,
2013-05-26 09:25:00,52.8,45.8,30.24,WNW,283,0.0,6.0,77,0.00,,CLR,0.00,VWS V13.01,2013-05-26 13:25:00,
2013-05-26 09:30:00,53.2,45.5,30.24,WNW,286,0.0,6.0,75,0.00,,CLR,0.00,VWS V13.01,2013-05-26 13:30:00,
2013-05-26 09:35:00,53.4,45.3,30.24,NW,312,0.0,5.0,74,0.00,,CLR,0.00,VWS V13.01,2013-05-26 13:35:00,
2013-05-26 09:40:00,53.3,45.2,30.25,WNW,288,2.0,5.0,74,0.00,,CLR,0.00,VWS V13.01,2013-05-26 13:40:00,
2013-05-26 09:45:00,53.4,46.0,30.25,NNW,340,0.0,5.0,76,0.00,,CLR,0.00,VWS V13.01,2013-05-26 13:45:00,
2013-05-26 09:50:00,53.9,45.8,30.25,East,90,0.0,5.0,74,0.00,,CLR,0.00,VWS V13.01,2013-05-26 13:50:00,
2013-05-26 09:55:00,54.1,45.7,30.25,WNW,286,2.0,6.0,73,0.00,,CLR,0.00,VWS V13.01,2013-05-26 13:55:00,
2013-05-26 10:00:00,54.0,45.9,30.25,WNW,284,4.0,4.0,74,0.00,,CLR,0.00,VWS V13.01,2013-05-26 14:00:00,
2013-05-26 10:05:00,54.0,45.9,30.25,West,273,2.0,7.0,74,0.00,,CLR,0.00,VWS V13.01,2013-05-26 14:05:00,
2013-05-26 10:10:00,54.1,46.0,30.25,WNW,300,1.0,7.0,74,0.00,,CLR,0.00,VWS V13.01,2013-05-26 14:10:00,
2013-05-26 10:15:00,54.3,46.6,30.25,NW,304,0.0,7.0,75,0.00,,CLR,0.00,VWS V13.01,2013-05-26 14:15:00,
2013-05-26 10:20:00,54.5,45.7,30.25,NNE,17,1.0,7.0,72,0.00,,CLR,0.00,VWS V13.01,2013-05-26 14:20:00,
2013-05-26 10:25:00,54.6,45.8,30.25,NW,306,3.0,7.0,72,0.00,,CLR,0.00,VWS V13.01,2013-05-26 14:25:00,
2013-05-26 10:30:00,54.5,46.4,30.25,WNW,287,3.0,3.0,74,0.00,,CLR,0.00,VWS V13.01,2013-05-26 14:30:00,
2013-05-26 10:35:00,54.8,45.6,30.25,NW,320,0.0,4.0,71,0.00,,CLR,0.00,VWS V13.01,2013-05-26 14:35:00,
2013-05-26 10:40:00,55.1,44.7,30.25,NNW,336,1.0,6.0,68,0.00,,CLR,0.00,VWS V13.01,2013-05-26 14:40:00,
2013-05-26 10:45:00,55.2,44.8,30.25,West,279,4.0,6.0,68,0.00,,CLR,0.00,VWS V13.01,2013-05-26 14:45:00,
2013-05-26 10:50:00,55.3,44.9,30.25,WNW,284,2.0,6.0,68,0.00,,CLR,0.00,VWS V13.01,2013-05-26 14:50:00,
2013-05-26 10:55:00,55.6,45.2,30.25,NNW,346,3.0,6.0,68,0.00,,CLR,0.00,VWS V13.01,2013-05-26 14:55:00,
2013-05-26 11:00:00,55.9,43.9,30.26,North,351,3.0,7.0,64,0.00,,CLR,0.00,VWS V13.01,2013-05-26 15:00:00,
2013-05-26 11:05:00,56.2,43.8,30.26,NNW,348,5.0,7.0,63,0.00,,CLR,0.00,VWS V13.01,2013-05-26 15:05:00,
2013-05-26 11:10:00,56.4,46.0,30.26,North,360,3.0,8.0,68,0.00,,CLR,0.00,VWS V13.01,2013-05-26 15:10:00,
2013-05-26 11:15:00,56.7,45.5,30.26,NNW,330,1.0,8.0,66,0.00,,CLR,0.00,VWS V13.01,2013-05-26 15:15:00,
2013-05-26 11:20:00,56.6,45.4,30.25,NNW,339,0.0,8.0,66,0.00,,CLR,0.00,VWS V13.01,2013-05-26 15:20:00,
2013-05-26 11:25:00,56.5,44.1,30.26,NNE,15,3.0,8.0,63,0.00,,CLR,0.00,VWS V13.01,2013-05-26 15:25:00,
2013-05-26 11:30:00,56.7,43.0,30.25,North,355,1.0,3.0,60,0.00,,CLR,0.00,VWS V13.01,2013-05-26 15:30:00,
2013-05-26 11:35:00,56.7,43.4,30.26,West,278,3.0,5.0,61,0.00,,CLR,0.00,VWS V13.01,2013-05-26 15:35:00,
2013-05-26 11:40:00,57.0,44.5,30.25,NW,319,0.0,9.0,63,0.00,,CLR,0.00,VWS V13.01,2013-05-26 15:40:00,
2013-05-26 11:45:00,56.9,42.7,30.26,WNW,289,2.0,9.0,59,0.00,,CLR,0.00,VWS V13.01,2013-05-26 15:45:00,
2013-05-26 11:50:00,56.7,43.0,30.25,West,274,1.0,9.0,60,0.00,,CLR,0.00,VWS V13.01,2013-05-26 15:50:00,
2013-05-26 11:55:00,57.0,43.3,30.25,North,350,2.0,9.0,60,0.00,,CLR,0.00,VWS V13.01,2013-05-26 15:55:00,
2013-05-26 12:00:00,57.4,42.8,30.26,North,10,2.0,5.0,58,0.00,,CLR,0.00,VWS V13.01,2013-05-26 16:00:00,
2013-05-26 12:05:00,57.5,41.5,30.26,North,5,0.0,6.0,55,0.00,,CLR,0.00,VWS V13.01,2013-05-26 16:05:00,
2013-05-26 12:10:00,57.6,42.5,30.26,North,9,0.0,6.0,57,0.00,,CLR,0.00,VWS V13.01,2013-05-26 16:10:00,
2013-05-26 12:16:00,57.7,40.7,30.26,WNW,300,3.0,9.0,53,0.00,,CLR,0.00,VWS V13.01,2013-05-26 16:16:00,
2013-05-26 12:21:00,57.8,40.3,30.26,West,281,4.0,9.0,52,0.00,,CLR,0.00,VWS V13.01,2013-05-26 16:21:00,
2013-05-26 12:26:00,57.2,41.7,30.26,WNW,294,3.0,9.0,56,0.00,,CLR,0.00,VWS V13.01,2013-05-26 16:26:00,
2013-05-26 12:31:00,57.5,40.5,30.25,West,281,3.0,4.0,53,0.00,,CLR,0.00,VWS V13.01,2013-05-26 16:31:00,
2013-05-26 12:36:00,57.5,40.0,30.25,NNE,22,0.0,7.0,52,0.00,,CLR,0.00,VWS V13.01,2013-05-26 16:36:00,
2013-05-26 12:41:00,58.0,41.9,30.25,West,275,3.0,7.0,55,0.00,,CLR,0.00,VWS V13.01,2013-05-26 16:41:00,
2013-05-26 12:46:00,58.0,41.0,30.25,WSW,257,1.0,7.0,53,0.00,,CLR,0.00,VWS V13.01,2013-05-26 16:46:00,
2013-05-26 12:51:00,58.0,39.5,30.25,North,355,1.0,9.0,50,0.00,,CLR,0.00,VWS V13.01,2013-05-26 16:51:00,
2013-05-26 12:56:00,58.0,40.5,30.25,NNW,344,1.0,10.0,52,0.00,,CLR,0.00,VWS V13.01,2013-05-26 16:56:00,
2013-05-26 13:01:00,57.8,39.3,30.26,NNE,12,3.0,7.0,50,0.00,,CLR,0.00,VWS V13.01,2013-05-26 17:01:00,
2013-05-26 13:06:00,57.2,40.2,30.26,WNW,284,3.0,7.0,53,0.00,,CLR,0.00,VWS V13.01,2013-05-26 17:06:00,
2013-05-26 13:11:00,57.3,39.3,30.26,NNW,346,0.0,7.0,51,0.00,,CLR,0.00,VWS V13.01,2013-05-26 17:11:00,
2013-05-26 13:16:00,57.2,39.8,30.26,SSW,205,4.0,7.0,52,0.00,,CLR,0.00,VWS V13.01,2013-05-26 17:16:00,
2013-05-26 13:21:00,57.3,41.3,30.26,South,174,3.0,9.0,55,0.00,,CLR,0.00,VWS V13.01,2013-05-26 17:21:00,
2013-05-26 13:26:00,57.5,40.0,30.25,SW,217,0.0,9.0,52,0.00,,CLR,0.00,VWS V13.01,2013-05-26 17:26:00,
2013-05-26 13:31:00,57.7,41.2,30.25,WNW,299,4.0,10.0,54,0.00,,CLR,0.00,VWS V13.01,2013-05-26 17:31:00,
2013-05-26 13:36:00,57.8,40.3,30.25,WNW,292,2.0,10.0,52,0.00,,CLR,0.00,VWS V13.01,2013-05-26 17:36:00,
2013-05-26 13:41:00,57.9,41.4,30.24,NNW,346,2.0,10.0,54,0.00,,CLR,0.00,VWS V13.01,2013-05-26 17:41:00,
2013-05-26 13:46:00,58.6,42.0,30.24,NW,321,2.0,10.0,54,0.00,,CLR,0.00,VWS V13.01,2013-05-26 17:46:00,
2013-05-26 13:51:00,58.6,39.5,30.24,North,360,1.0,10.0,49,0.00,,CLR,0.00,VWS V13.01,2013-05-26 17:51:00,
2013-05-26 13:56:00,58.4,42.3,30.24,WNW,290,1.0,10.0,55,0.00,,CLR,0.00,VWS V13.01,2013-05-26 17:56:00,
2013-05-26 14:01:00,58.5,41.0,30.24,WNW,294,0.0,2.0,52,0.00,,CLR,0.00,VWS V13.01,2013-05-26 18:01:00,
2013-05-26 14:06:00,58.7,41.6,30.25,WNW,287,2.0,5.0,53,0.00,,CLR,0.00,VWS V13.01,2013-05-26 18:06:00,
2013-05-26 14:11:00,59.0,41.4,30.24,WNW,287,0.0,7.0,52,0.00,,CLR,0.00,VWS V13.01,2013-05-26 18:11:00,
2013-05-26 14:16:00,59.0,41.4,30.24,NW,305,2.0,10.0,52,0.00,,CLR,0.00,VWS V13.01,2013-05-26 18:16:00,
2013-05-26 14:21:00,59.0,40.9,30.25,West,279,1.0,10.0,51,0.00,,CLR,0.00,VWS V13.01,2013-05-26 18:21:00,
2013-05-26 14:26:00,59.1,41.5,30.24,South,179,1.0,10.0,52,0.00,,CLR,0.00,VWS V13.01,2013-05-26 18:26:00,
2013-05-26 14:31:00,59.2,42.1,30.24,West,261,0.0,2.0,53,0.00,,CLR,0.00,VWS V13.01,2013-05-26 18:31:00,
2013-05-26 14:36:00,59.6,42.0,30.24,West,271,0.0,3.0,52,0.00,,CLR,0.00,VWS V13.01,2013-05-26 18:36:00,
2013-05-26 14:41:00,59.8,42.2,30.24,SW,227,1.0,5.0,52,0.00,,CLR,0.00,VWS V13.01,2013-05-26 18:41:00,
2013-05-26 14:46:00,59.5,41.9,30.24,WSW,238,5.0,6.0,52,0.00,,CLR,0.00,VWS V13.01,2013-05-26 18:46:00,
2013-05-26 14:51:00,59.1,42.5,30.24,WNW,293,3.0,6.0,54,0.00,,CLR,0.00,VWS V13.01,2013-05-26 18:51:00,
2013-05-26 14:56:00,59.5,42.9,30.24,West,275,1.0,6.0,54,0.00,,CLR,0.00,VWS V13.01,2013-05-26 18:56:00,
2013-05-26 15:01:00,60.1,43.4,30.24,WSW,257,1.0,4.0,54,0.00,,CLR,0.00,VWS V13.01,2013-05-26 19:01:00,
2013-05-26 15:06:00,60.4,42.7,30.23,WSW,247,3.0,6.0,52,0.00,,CLR,0.00,VWS V13.01,2013-05-26 19:06:00,
2013-05-26 15:11:00,60.1,41.9,30.23,SSW,196,1.0,6.0,51,0.00,,CLR,0.00,VWS V13.01,2013-05-26 19:11:00,
2013-05-26 15:16:00,60.4,42.7,30.23,NW,315,3.0,6.0,52,0.00,,CLR,0.00,VWS V13.01,2013-05-26 19:16:00,
2013-05-26 15:21:00,60.9,41.6,30.23,North,360,1.0,6.0,49,0.00,,CLR,0.00,VWS V13.01,2013-05-26 19:21:00,
2013-05-26 15:26:00,61.4,42.1,30.22,West,268,0.0,6.0,49,0.00,,CLR,0.00,VWS V13.01,2013-05-26 19:26:00,
2013-05-26 15:31:00,61.6,42.3,30.22,SW,229,0.0,3.0,49,0.00,,CLR,0.00,VWS V13.01,2013-05-26 19:31:00,
2013-05-26 15:36:00,62.0,45.2,30.22,WNW,286,0.0,4.0,54,0.00,,CLR,0.00,VWS V13.01,2013-05-26 19:36:00,
2013-05-26 15:41:00,62.3,42.9,30.22,West,264,3.0,4.0,49,0.00,,CLR,0.00,VWS V13.01,2013-05-26 19:41:00,
2013-05-26 15:46:00,62.2,42.3,30.22,WNW,291,0.0,6.0,48,0.00,,CLR,0.00,VWS V13.01,2013-05-26 19:46:00,
2013-05-26 15:51:00,62.1,42.7,30.22,WNW,301,1.0,6.0,49,0.00,,CLR,0.00,VWS V13.01,2013-05-26 19:51:00,
2013-05-26 15:56:00,62.1,42.2,30.22,South,177,2.0,6.0,48,0.00,,CLR,0.00,VWS V13.01,2013-05-26 19:56:00,
2013-05-26 16:01:00,62.1,42.2,30.22,WNW,282,0.0,0.0,48,0.00,,CLR,0.00,VWS V13.01,2013-05-26 20:01:00,
2013-05-26 16:06:00,62.4,43.0,30.23,WNW,286,0.0,5.0,49,0.00,,CLR,0.00,VWS V13.01,2013-05-26 20:06:00,
2013-05-26 16:11:00,62.3,41.3,30.23,SW,219,0.0,5.0,46,0.00,,CLR,0.00,VWS V13.01,2013-05-26 20:11:00,
2013-05-26 16:16:00,62.5,42.6,30.22,WSW,238,0.0,5.0,48,0.00,,CLR,0.00,VWS V13.01,2013-05-26 20:16:00,
2013-05-26 16:21:00,62.8,43.9,30.23,West,262,1.0,5.0,50,0.00,,CLR,0.00,VWS V13.01,2013-05-26 20:21:00,
2013-05-26 16:26:00,62.9,43.5,30.22,West,268,5.0,5.0,49,0.00,,CLR,0.00,VWS V13.01,2013-05-26 20:26:00,
2013-05-26 16:31:00,62.7,42.2,30.22,West,275,0.0,4.0,47,0.00,,CLR,0.00,VWS V13.01,2013-05-26 20:31:00,
2013-05-26 16:36:00,62.5,43.6,30.22,SW,214,0.0,4.0,50,0.00,,CLR,0.00,VWS V13.01,2013-05-26 20:36:00,
2013-05-26 16:41:00,62.4,42.5,30.22,ESE,122,0.0,4.0,48,0.00,,CLR,0.00,VWS V13.01,2013-05-26 20:41:00,
2013-05-26 16:46:00,62.5,42.6,30.22,NW,313,0.0,4.0,48,0.00,,CLR,0.00,VWS V13.01,2013-05-26 20:46:00,
2013-05-26 16:51:00,62.5,42.0,30.22,West,277,0.0,5.0,47,0.00,,CLR,0.00,VWS V13.01,2013-05-26 20:51:00,
2013-05-26 16:56:00,62.2,41.7,30.21,South,180,0.0,5.0,47,0.00,,CLR,0.00,VWS V13.01,2013-05-26 20:56:00,
2013-05-26 17:01:00,61.8,43.0,30.21,NW,308,2.0,4.0,50,0.00,,CLR,0.00,VWS V13.01,2013-05-26 21:01:00,
2013-05-26 17:06:00,61.9,43.6,30.21,NW,304,0.0,5.0,51,0.00,,CLR,0.00,VWS V13.01,2013-05-26 21:06:00,
2013-05-26 17:11:00,62.0,42.6,30.21,WSW,237,0.0,5.0,49,0.00,,CLR,0.00,VWS V13.01,2013-05-26 21:11:00,
2013-05-26 17:16:00,61.9,43.1,30.21,NNE,27,0.0,5.0,50,0.00,,CLR,0.00,VWS V13.01,2013-05-26 21:16:00,
2013-05-26 17:21:00,61.9,42.0,30.21,WNW,287,1.0,5.0,48,0.00,,CLR,0.00,VWS V13.01,2013-05-26 21:21:00,
2013-05-26 17:26:00,61.4,41.6,30.21,SW,216,3.0,5.0,48,0.00,,CLR,0.00,VWS V13.01,2013-05-26 21:26:00,
2013-05-26 17:31:00,60.8,41.5,30.21,SSW,199,4.0,6.0,49,0.00,,CLR,0.00,VWS V13.01,2013-05-26 21:31:00,
2013-05-26 17:36:00,60.4,42.2,30.22,SW,232,1.0,6.0,51,0.00,,CLR,0.00,VWS V13.01,2013-05-26 21:36:00,
2013-05-26 17:41:00,60.2,42.5,30.21,SW,232,0.0,6.0,52,0.00,,CLR,0.00,VWS V13.01,2013-05-26 21:41:00,
2013-05-26 17:46:00,60.0,42.3,30.21,WSW,253,0.0,6.0,52,0.00,,CLR,0.00,VWS V13.01,2013-05-26 21:46:00,
2013-05-26 17:51:00,59.7,42.6,30.21,SW,220,0.0,6.0,53,0.00,,CLR,0.00,VWS V13.01,2013-05-26 21:51:00,
2013-05-26 17:56:00,59.6,43.0,30.21,SW,220,1.0,6.0,54,0.00,,CLR,0.00,VWS V13.01,2013-05-26 21:56:00,
2013-05-26 18:01:00,59.6,42.5,30.20,North,360,0.0,2.0,53,0.00,,CLR,0.00,VWS V13.01,2013-05-26 22:01:00,
2013-05-26 18:06:00,59.4,42.8,30.20,SSW,207,1.0,4.0,54,0.00,,CLR,0.00,VWS V13.01,2013-05-26 22:06:00,
2013-05-26 18:11:00,59.2,43.1,30.20,SSW,201,2.0,4.0,55,0.00,,CLR,0.00,VWS V13.01,2013-05-26 22:11:00,
2013-05-26 18:17:00,59.0,40.9,30.20,SW,227,1.0,4.0,51,0.00,,CLR,0.00,VWS V13.01,2013-05-26 22:17:00,
2013-05-26 18:21:00,59.0,42.4,30.20,WSW,257,0.0,4.0,54,0.00,,CLR,0.00,VWS V13.01,2013-05-26 22:21:00,
2013-05-26 18:27:00,59.0,43.3,30.20,SW,227,0.0,4.0,56,0.00,,CLR,0.00,VWS V13.01,2013-05-26 22:27:00,
2013-05-26 18:32:00,59.0,42.4,30.20,West,280,2.0,4.0,54,0.00,,CLR,0.00,VWS V13.01,2013-05-26 22:32:00,
2013-05-26 18:36:00,59.0,42.4,30.20,WNW,285,0.0,4.0,54,0.00,,CLR,0.00,VWS V13.01,2013-05-26 22:36:00,
2013-05-26 18:42:00,59.0,43.3,30.20,North,355,0.0,4.0,56,0.00,,CLR,0.00,VWS V13.01,2013-05-26 22:42:00,
2013-05-26 18:47:00,58.9,42.3,30.20,NW,306,1.0,5.0,54,0.00,,CLR,0.00,VWS V13.01,2013-05-26 22:47:00,
2013-05-26 18:52:00,58.5,41.9,30.20,WNW,290,0.0,5.0,54,0.00,,CLR,0.00,VWS V13.01,2013-05-26 22:52:00,
2013-05-26 18:57:00,58.1,41.6,30.19,West,261,0.0,5.0,54,0.00,,CLR,0.00,VWS V13.01,2013-05-26 22:57:00,
2013-05-26 19:02:00,58.0,42.4,30.19,West,261,1.0,1.0,56,0.00,,CLR,0.00,VWS V13.01,2013-05-26 23:02:00,
2013-05-26 19:07:00,58.0,42.9,30.19,SW,219,0.0,2.0,57,0.00,,CLR,0.00,VWS V13.01,2013-05-26 23:07:00,
2013-05-26 19:12:00,57.8,43.1,30.19,SW,219,0.0,2.0,58,0.00,,CLR,0.00,VWS V13.01,2013-05-26 23:12:00,
2013-05-26 19:17:00,57.7,42.6,30.19,WSW,258,1.0,6.0,57,0.00,,CLR,0.00,VWS V13.01,2013-05-26 23:17:00,
2013-05-26 19:22:00,57.5,41.9,30.19,SW,231,1.0,6.0,56,0.00,,CLR,0.00,VWS V13.01,2013-05-26 23:22:00,
2013-05-26 19:27:00,57.2,42.1,30.19,South,173,0.0,6.0,57,0.00,,CLR,0.00,VWS V13.01,2013-05-26 23:27:00,
2013-05-26 19:32:00,57.0,42.4,30.19,West,276,3.0,5.0,58,0.00,,CLR,0.00,VWS V13.01,2013-05-26 23:32:00,
2013-05-26 19:37:00,56.8,43.1,30.18,SW,224,0.0,5.0,60,0.00,,CLR,0.00,VWS V13.01,2013-05-26 23:37:00,
2013-05-26 19:42:00,56.5,43.2,30.19,WSW,252,0.0,5.0,61,0.00,,CLR,0.00,VWS V13.01,2013-05-26 23:42:00,
2013-05-26 19:47:00,56.3,43.0,30.19,WSW,252,0.0,5.0,61,0.00,,CLR,0.00,VWS V13.01,2013-05-26 23:47:00,
2013-05-26 19:52:00,56.1,42.8,30.19,WSW,254,0.0,6.0,61,0.00,,CLR,0.00,VWS V13.01,2013-05-26 23:52:00,
2013-05-26 19:57:00,55.9,42.7,30.19,SSW,207,1.0,6.0,61,0.00,,CLR,0.00,VWS V13.01,2013-05-26 23:57:00,
2013-05-26 20:02:00,55.8,42.6,30.18,WNW,295,0.0,2.0,61,0.00,,CLR,0.00,VWS V13.01,2013-05-27 00:02:00,
2013-05-26 20:07:00,55.7,42.9,30.18,West,271,0.0,3.0,62,0.00,,CLR,0.00,VWS V13.01,2013-05-27 00:07:00,
2013-05-26 20:12:00,55.5,42.7,30.18,North,350,0.0,3.0,62,0.00,,CLR,0.00,VWS V13.01,2013-05-27 00:12:00,
2013-05-26 20:17:00,55.3,42.9,30.19,North,350,0.0,3.0,63,0.00,,CLR,0.00,VWS V13.01,2013-05-27 00:17:00,
2013-05-26 20:22:00,55.0,43.1,30.18,NNW,347,0.0,3.0,64,0.00,,CLR,0.00,VWS V13.01,2013-05-27 00:22:00,
2013-05-26 20:27:00,54.7,43.6,30.18,NNW,347,0.0,3.0,66,0.00,,CLR,0.00,VWS V13.01,2013-05-27 00:27:00,
2013-05-26 20:32:00,54.4,43.3,30.18,NNW,347,0.0,1.0,66,0.00,,CLR,0.00,VWS V13.01,2013-05-27 00:32:00,
2013-05-26 20:37:00,54.0,43.3,30.18,NNW,347,0.0,1.0,67,0.00,,CLR,0.00,VWS V13.01,2013-05-27 00:37:00,
2013-05-26 20:42:00,53.6,43.3,30.18,NNW,347,1.0,1.0,68,0.00,,CLR,0.00,VWS V13.01,2013-05-27 00:42:00,
2013-05-26 20:47:00,53.3,43.0,30.18,NNW,341,0.0,1.0,68,0.00,,CLR,0.00,VWS V13.01,2013-05-27 00:47:00,
2013-05-26 20:52:00,53.2,42.5,30.18,NNW,341,0.0,1.0,67,0.00,,CLR,0.00,VWS V13.01,2013-05-27 00:52:00,
2013-05-26 20:57:00,52.9,42.6,30.19,NNW,341,0.0,2.0,68,0.00,,CLR,0.00,VWS V13.01,2013-05-27 00:57:00,
2013-05-26 21:02:00,52.6,42.3,30.18,NNW,341,0.0,0.0,68,0.00,,CLR,0.00,VWS V13.01,2013-05-27 01:02:00,
2013-05-26 21:07:00,52.3,42.5,30.18,NNW,341,0.0,1.0,69,0.00,,CLR,0.00,VWS V13.01,2013-05-27 01:07:00,
2013-05-26 21:12:00,51.9,42.4,30.18,NNW,341,0.0,1.0,70,0.00,,CLR,0.00,VWS V13.01,2013-05-27 01:12:00,
2013-05-26 21:17:00,51.6,42.2,30.18,NNW,341,0.0,1.0,70,0.00,,CLR,0.00,VWS V13.01,2013-05-27 01:17:00,
2013-05-26 21:22:00,51.3,42.2,30.18,NNW,341,0.0,1.0,71,0.00,,CLR,0.00,VWS V13.01,2013-05-27 01:22:00,
2013-05-26 21:27:00,51.0,41.9,30.18,NNW,341,0.0,1.0,71,0.00,,CLR,0.00,VWS V13.01,2013-05-27 01:27:00,
2013-05-26 21:32:00,50.9,41.8,30.18,NNW,341,0.0,0.0,71,0.00,,CLR,0.00,VWS V13.01,2013-05-27 01:32:00,
2013-05-26 21:37:00,50.8,42.1,30.19,NNW,341,0.0,0.0,72,0.00,,CLR,0.00,VWS V13.01,2013-05-27 01:37:00,
2013-05-26 21:42:00,50.6,41.9,30.19,NNW,341,0.0,0.0,72,0.00,,CLR,0.00,VWS V13.01,2013-05-27 01:42:00,
2013-05-26 21:47:00,50.3,42.0,30.19,NNW,341,0.0,0.0,73,0.00,,CLR,0.00,VWS V13.01,2013-05-27 01:47:00,
2013-05-26 21:52:00,50.1,41.8,30.19,NNW,341,0.0,0.0,73,0.00,,CLR,0.00,VWS V13.01,2013-05-27 01:52:00,
2013-05-26 21:57:00,50.0,42.0,30.19,NNW,341,0.0,0.0,74,0.00,,CLR,0.00,VWS V13.01,2013-05-27 01:57:00,
2013-05-26 22:02:00,49.7,41.8,30.19,NNW,341,0.0,0.0,74,0.00,,CLR,0.00,VWS V13.01,2013-05-27 02:02:00,
2013-05-26 22:07:00,49.5,41.6,30.19,NNW,341,0.0,0.0,74,0.00,,CLR,0.00,VWS V13.01,2013-05-27 02:07:00,
2013-05-26 22:12:00,49.2,41.6,30.20,NNW,341,0.0,0.0,75,0.00,,CLR,0.00,VWS V13.01,2013-05-27 02:12:00,
2013-05-26 22:17:00,49.1,41.9,30.20,NNW,341,0.0,0.0,76,0.00,,CLR,0.00,VWS V13.01,2013-05-27 02:17:00,
2013-05-26 22:22:00,49.0,41.8,30.20,NNW,341,0.0,0.0,76,0.00,,CLR,0.00,VWS V13.01,2013-05-27 02:22:00,
2013-05-26 22:27:00,49.0,41.8,30.20,NNW,341,0.0,0.0,76,0.00,,CLR,0.00,VWS V13.01,2013-05-27 02:27:00,
2013-05-26 22:32:00,48.9,42.0,30.20,NNW,341,0.0,0.0,77,0.00,,CLR,0.00,VWS V13.01,2013-05-27 02:32:00,
2013-05-26 22:37:00,48.8,41.9,30.20,NNW,341,0.0,0.0,77,0.00,,CLR,0.00,VWS V13.01,2013-05-27 02:37:00,
2013-05-26 22:42:00,48.7,41.8,30.20,NNW,341,0.0,0.0,77,0.00,,CLR,0.00,VWS V13.01,2013-05-27 02:42:00,
2013-05-26 22:47:00,48.5,41.6,30.20,NNW,341,0.0,0.0,77,0.00,,CLR,0.00,VWS V13.01,2013-05-27 02:47:00,
2013-05-26 22:52:00,48.4,41.9,30.20,NNW,341,0.0,0.0,78,0.00,,CLR,0.00,VWS V13.01,2013-05-27 02:52:00,
2013-05-26 22:57:00,48.4,41.9,30.20,NNW,341,0.0,1.0,78,0.00,,CLR,0.00,VWS V13.01,2013-05-27 02:57:00,
2013-05-26 23:03:00,48.3,41.8,30.20,NNW,341,0.0,0.0,78,0.00,,CLR,0.00,VWS V13.01,2013-05-27 03:03:00,
2013-05-26 23:08:00,48.1,41.6,30.20,NNW,341,0.0,0.0,78,0.00,,CLR,0.00,VWS V13.01,2013-05-27 03:08:00,
2013-05-26 23:13:00,47.9,41.7,30.20,NNW,341,0.0,0.0,79,0.00,,CLR,0.00,VWS V13.01,2013-05-27 03:13:00,
2013-05-26 23:18:00,47.7,41.5,30.20,NNW,341,0.0,0.0,79,0.00,,CLR,0.00,VWS V13.01,2013-05-27 03:18:00,
2013-05-26 23:23:00,47.6,41.8,30.20,NNW,341,0.0,0.0,80,0.00,,CLR,0.00,VWS V13.01,2013-05-27 03:23:00,
2013-05-26 23:28:00,47.5,41.7,30.20,NNW,341,0.0,0.0,80,0.00,,CLR,0.00,VWS V13.01,2013-05-27 03:28:00,
2013-05-26 23:33:00,47.4,41.5,30.20,NNW,341,0.0,0.0,80,0.00,,CLR,0.00,VWS V13.01,2013-05-27 03:33:00,
2013-05-26 23:38:00,47.4,41.5,30.20,NNW,341,0.0,0.0,80,0.00,,CLR,0.00,VWS V13.01,2013-05-27 03:38:00,
2013-05-26 23:43:00,47.3,41.8,30.21,NNW,341,0.0,0.0,81,0.00,,CLR,0.00,VWS V13.01,2013-05-27 03:43:00,
2013-05-26 23:48:00,47.2,41.7,30.21,NNW,341,1.0,1.0,81,0.00,,CLR,0.00,VWS V13.01,2013-05-27 03:48:00,
2013-05-26 23:53:00,47.0,41.5,30.21,NNW,341,0.0,1.0,81,0.00,,CLR,0.00,VWS V13.01,2013-05-27 03:53:00,
2013-05-26 23:58:00,47.0,41.5,30.21,NNW,341,0.0,1.0,81,0.00,,CLR,0.00,VWS V13.01,2013-05-27 03:58:00,